Concordia, KS

6:34 PM CST on December 10, 2019 (GMT -0600)
Blosser Municipal

Weather History for KCNK - August, 2019

Change the Weather History Date:

Saturday, August 17, 2019

  Actual Average Record
Temperature  
Mean Temperature 79 °F 77 °F  
Max Temperature 89 °F 89 °F 107 °F (1983)
Min Temperature 68 °F 66 °F 49 °F (2012)
Degree Days  
Heating Degree Days 0 0  
Month to date heating degree days 0 0  
Since 1 June heating degree days 0 13  
Since 1 July heating degree days 0 0  
Cooling Degree Days 14 12  
Month to date cooling degree days 224 224  
Year to date cooling degree days 1129 1014  
Since 1 June cooling degree days 1029 925  
Growing Degree Days 28 (Base 50)    
Moisture  
Dew Point 71 °F    
Average Humidity 75    
Maximum Humidity 90    
Minimum Humidity 59    
Precipitation  
Precipitation 0.48 in 0.11 in 1.47 in (1961)
Month to date precipitation 4.67 1.81  
Year to date precipitation 26.90 19.77  
Snow  
Snow 0.00 in 0.00 in 0.00 in ()
Month to date snowfall 0.0 0.0  
Year to date snowfall 32.3 13.7  
Since 1 July snowfall 0.0 0.0  
Snow Depth 0.00 in    
Sea Level Pressure  
Sea Level Pressure 29.77 in    
Wind  
Wind Speed 9 mph (SSE)    
Max Wind Speed 24 mph    
Max Gust Speed 36 mph    
Visibility 9 miles    
Events Rain , Thunderstorm    
T = Trace of Precipitation, MM = Missing Value Source: NWS Daily Summary

Daily Weather History Graph

Daily Weather History Graph

Search for Another Location

Airport or City:

Astronomy

Aug. 17, 2019 Rise Set
Actual Time 6:44 AM CDT 8:23 PM CDT
Civil Twilight 6:16 AM CDT 8:52 PM CDT
Nautical Twilight 5:41 AM CDT 9:27 PM CDT
Astronomical Twilight 5:04 AM CDT 10:03 PM CDT
Moon 9:52 PM CDT (8/17) 8:34 AM CDT (8/17)
Length of Visible Light 14h 36m
Length of Day
13h 39m
Waning Gibbous, 96% of the Moon is Illuminated
Aug 17
Waning Gibbous
Aug 23
Last Quarter
Aug 30
New
Sep 5
First Quarter
Sep 13
Full

Hourly Weather History & Observations

Time (CDT) Temp. Heat Index Dew Point Humidity Pressure Visibility Wind Dir Wind Speed Gust Speed Precip Events Conditions
12:03 AM 78.1 °F - 73.9 °F 87% 29.77 in 10.0 mi ENE 3.5 mph - N/A Thunderstorm Thunderstorm
12:18 AM 77.0 °F - 73.9 °F 90% 29.78 in 9.0 mi North 12.7 mph 18.4 mph 0.01 in Rain , Thunderstorm Light Rain
12:55 AM 77.0 °F - 73.9 °F 90% 29.74 in 9.0 mi SE 8.1 mph - 0.01 in Thunderstorm Overcast
1:06 AM 78.1 °F - 73.9 °F 87% 29.79 in 10.0 mi North 9.2 mph - 0.00 in Rain Light Rain
1:10 AM 77.0 °F - 73.9 °F 90% 29.79 in 9.0 mi Variable 5.8 mph - 0.00 in Rain , Thunderstorm Light Thunderstorms and Rain
1:55 AM 75.9 °F - 73.9 °F 94% 29.72 in 10.0 mi North 4.6 mph - 0.17 in Rain , Thunderstorm Light Rain
2:02 AM 75.9 °F - 73.9 °F 94% 29.75 in 10.0 mi Calm Calm - 0.00 in Thunderstorm Mostly Cloudy
2:16 AM 75.9 °F - 73.9 °F 94% 29.76 in 9.0 mi NNE 10.4 mph - 0.00 in Rain Light Rain
2:34 AM 75.9 °F - 73.9 °F 94% 29.77 in 8.0 mi SE 8.1 mph - 0.00 in   Mostly Cloudy
2:47 AM 75.0 °F - 73.0 °F 94% 29.79 in 9.0 mi NE 9.2 mph - 0.00 in   Scattered Clouds
2:55 AM 73.9 °F - 72.0 °F 93% 29.78 in 10.0 mi NNE 6.9 mph - 0.00 in   Mostly Cloudy
3:05 AM 73.9 °F - 71.1 °F 91% 29.85 in 8.0 mi NNE 4.6 mph - 0.00 in Rain , Thunderstorm Light Rain
3:37 AM 71.1 °F - 69.1 °F 93% 29.87 in 3.0 mi SW 15.0 mph 27.6 mph 0.13 in Rain , Thunderstorm Heavy Thunderstorms and Rain
3:39 AM 70.0 °F - 68.0 °F 93% 29.86 in 2.0 mi SW 17.3 mph 27.6 mph 0.13 in Rain , Thunderstorm Heavy Thunderstorms and Rain
3:43 AM 70.0 °F - 66.9 °F 90% 29.88 in 1.8 mi West 17.3 mph 26.5 mph 0.26 in Rain , Thunderstorm Heavy Thunderstorms and Rain
3:47 AM 70.0 °F - 68.0 °F 93% 29.87 in 2.0 mi West 18.4 mph 31.1 mph 0.27 in Rain , Thunderstorm Heavy Thunderstorms and Rain
3:49 AM 71.6 °F - 68.0 °F 88% 29.88 in 3.0 mi WSW 17.3 mph 31.1 mph 0.28 in Rain , Thunderstorm Thunderstorms and Rain
3:52 AM 71.6 °F - 68.0 °F 88% 29.89 in 5.0 mi WSW 24.2 mph 36.8 mph 0.29 in Rain , Thunderstorm Rain
3:55 AM 70.0 °F - 66.0 °F 87% 29.84 in 7.0 mi WSW 23.0 mph 36.8 mph 0.29 in Rain , Thunderstorm Light Rain
4:04 AM 70.0 °F - 64.9 °F 84% 29.86 in 10.0 mi SW 12.7 mph 34.5 mph 0.01 in Rain Light Rain
4:55 AM 69.1 °F - 66.0 °F 90% 29.78 in 10.0 mi East 4.6 mph - 0.01 in Rain Light Rain
5:55 AM 69.1 °F - 64.0 °F 84% 29.74 in 10.0 mi Variable 3.5 mph - 0.01 in   Partly Cloudy
6:55 AM 68.0 °F - 64.0 °F 87% 29.77 in 10.0 mi ESE 4.6 mph - N/A   Clear
7:55 AM 68.0 °F - 64.9 °F 90% 29.80 in 10.0 mi WSW 3.5 mph - N/A   Clear
8:55 AM 72.0 °F - 66.9 °F 84% 29.78 in 10.0 mi SE 8.1 mph - N/A   Clear
9:55 AM 75.9 °F - 69.1 °F 79% 29.78 in 10.0 mi North - - N/A   Clear
10:55 AM 79.0 °F - 68.0 °F 69% 29.78 in 10.0 mi South 15.0 mph 20.7 mph N/A   Clear
11:55 AM 81.0 °F 84.4 °F 70.0 °F 69% 29.78 in 10.0 mi South 12.7 mph 21.9 mph N/A   Clear
12:55 PM 82.9 °F 87.0 °F 70.0 °F 65% 29.77 in 10.0 mi South 13.8 mph - N/A   Scattered Clouds
1:55 PM 84.0 °F 89.0 °F 71.1 °F 65% 29.73 in 10.0 mi South 13.8 mph - N/A   Clear
2:55 PM 84.9 °F 90.1 °F 71.1 °F 63% 29.72 in 10.0 mi SSE 10.4 mph - N/A   Clear
3:55 PM 87.1 °F 94.5 °F 73.0 °F 63% 29.70 in 10.0 mi South 11.5 mph - N/A   Clear
4:55 PM 89.1 °F 97.0 °F 73.0 °F 59% 29.68 in 10.0 mi SSE 10.4 mph - N/A   Clear
5:55 PM 88.0 °F 95.6 °F 73.0 °F 61% 29.68 in 10.0 mi SSE 12.7 mph - N/A   Clear
6:55 PM 84.0 °F 91.2 °F 73.9 °F 72% 29.68 in 10.0 mi SSE 6.9 mph - N/A   Clear
7:55 PM 80.1 °F 85.1 °F 75.0 °F 85% 29.68 in 10.0 mi SE 5.8 mph - N/A   Clear
8:55 PM 79.0 °F - 73.9 °F 84% 29.66 in 10.0 mi SSE 6.9 mph - N/A   Clear
9:55 PM 80.1 °F 84.5 °F 73.9 °F 81% 29.70 in 10.0 mi South 9.2 mph - N/A   Clear
10:55 PM 80.1 °F 85.1 °F 75.0 °F 85% 29.69 in 10.0 mi South 12.7 mph - N/A   Clear
11:55 PM 82.0 °F 88.6 °F 75.0 °F 79% 29.65 in 10.0 mi SSE 10.4 mph 19.6 mph N/A   Clear